Location: *
(35.2348°S, 91.3916°E)
Time: 12:09:13
(UTC+00:00)

H-2A R/B - Pass Details

Date: 23 October 2019
Orbit: 578 x 656 km, 98.5° (Epoch: 21 November)

Event Time Altitude Azimuth Distance (km) Brightness Sun altitude
Rises 21:26:26 0° 178° (S) 2,840 5.9 -18.7°
Reaches altitude 10° 21:28:44 10° 187° (S) 1,938 4.9 -18.3°
Maximum altitude 21:32:32 34° 252° (WSW) 995 2.7 -17.7°
Enters shadow 21:33:08 32° 270° (W) 1,030 2.7 -17.6°
